{"data":{"norad_id":67689,"intl_designator":"2026-024A","name":"PRC TEST SPACECRAFT 4","alt_names":[],"object_type":"PAYLOAD","status":"ACTIVE","operator":null,"country":"PRC","launch_date":"2026-02-07","launch_site_code":"JSC","launch_vehicle":null,"mission":null,"orbit_class":"UNKNOWN","rcs_meters":null,"size_class":null,"mass_kg":null,"dimensions":null,"purposes":[],"wikipedia_slug":null,"has_3d_model":false,"image_url":null,"decayed_at":null,"tle_current":{"epoch":"2026-05-24T22:11:43.476000Z","epoch_age_seconds":71815,"freshness":"FRESH","line1":"1 67689U 26024A   26144.92480875 -.00000094  00000+0  14794-4 0  9992","line2":"2 67689  49.9872  24.8659 0005623 305.9992  54.0428 14.91698777 15967","mean_motion":14.91698777,"eccentricity":0.0005623,"inclination_deg":49.9872,"raan_deg":24.8659,"arg_perigee_deg":305.9992,"mean_anomaly_deg":54.0428,"bstar":1.4794e-5,"rev_number":1596,"period_min":96.534234806844,"perigee_km":588.71866328103,"apogee_km":596.55799721743,"semimajor_km":6970.7753302492,"source":"CELESTRAK","updated_at":"2026-05-25T13:38:07.187782Z"}}}